Date String (YYYY-MM-DD hh:mm:ss) UTC,Instrument flags,Ambient pressure (hPa),Sample flow (lpm),Bypass flow (lpm),Sample temperature (°C),Ambient temperature (°C),ASC tube jacket temperature (°C),LED temperature (°C),Box temperature (°C),Sample RH (%),Span deviation,Mass concentration (μg/m³),Mass concentration (μg/m³),Mass concentration (μg/m³)
DateTimeUTC,F1_M11,P_M11,Q1_M11,Q2_M11,T1_M11,T2_M11,T3_M11,T4_M11,T5_M11,U1_M11,ZSPAN_M11,X0_M11,X2_M11,X1_M11
2022-07-20 19:00:00,,0829.3,4.99,0.00,29.3,28.0,00.0,38.0,31.3,25.2,0000.0,0020.35,0007.83,0006.38
2022-07-20 19:01:00,,0829.3,5.00,0.00,29.3,28.0,00.0,38.0,31.3,25.0,0000.0,0019.82,0007.71,0006.32
2022-07-20 19:02:00,,0829.3,4.99,0.00,29.3,27.4,00.0,37.9,31.3,24.9,0000.0,0019.58,0007.60,0006.22
2022-07-20 19:03:00,,0829.2,5.01,0.00,29.3,27.0,00.0,37.9,31.2,25.2,0000.0,0019.61,0007.56,0006.11
2022-07-20 19:04:00,,0829.2,4.99,0.00,29.3,27.1,00.0,37.9,31.1,25.3,0000.0,0019.08,0007.48,0006.00
2022-07-20 19:05:00,,0829.2,5.00,0.00,29.3,27.2,00.0,37.9,31.1,25.2,0000.0,0018.63,0007.35,0005.90
2022-07-20 19:06:00,,0829.2,5.00,0.00,29.2,27.4,00.0,37.9,31.1,25.2,0000.0,0017.42,0007.18,0005.79
2022-07-20 19:07:00,,0829.2,5.01,0.00,29.3,27.6,00.0,38.0,31.2,25.2,0000.0,0016.17,0007.02,0005.68
2022-07-20 19:08:00,,0829.1,5.00,0.00,29.3,27.8,00.0,38.0,31.2,25.1,0000.0,0016.86,0006.93,0005.59
2022-07-20 19:09:00,,0829.0,5.00,0.00,29.3,28.0,00.0,38.0,31.3,25.5,0000.0,0016.85,0006.88,0005.50
2022-07-20 19:10:00,,0829.0,5.00,0.00,29.3,27.7,00.0,38.0,31.3,25.8,0000.0,0017.17,0006.78,0005.41
2022-07-20 19:11:00,,0829.0,5.00,0.00,29.3,27.2,00.0,37.9,31.2,25.7,0000.0,0018.28,0006.65,0005.32
2022-07-20 19:12:00,,0829.1,5.01,0.00,29.3,27.1,00.0,37.9,31.1,25.3,0000.0,0018.67,0006.62,0005.26
2022-07-20 19:13:00,,0829.1,5.00,0.00,29.2,27.2,00.0,37.9,31.1,25.1,0000.0,0018.04,0006.55,0005.23
2022-07-20 19:14:00,,0829.0,5.00,0.00,29.2,27.3,00.0,37.9,31.1,25.0,0000.0,0017.87,0006.44,0005.20
2022-07-20 19:15:00,,0829.0,5.00,0.00,29.2,27.5,00.0,37.9,31.1,25.4,0000.0,0017.32,0006.41,0005.16
2022-07-20 19:16:00,,0829.1,5.00,0.00,29.3,27.7,00.0,37.9,31.2,25.4,0000.0,0017.35,0006.41,0005.14
2022-07-20 19:17:00,,0829.1,5.01,0.00,29.3,27.9,00.0,38.0,31.3,25.2,0000.0,0017.88,0006.42,0005.13
2022-07-20 19:18:00,,0829.1,4.99,0.00,29.3,28.0,00.0,38.0,31.3,25.3,0000.0,0017.96,0006.44,0005.13
2022-07-20 19:19:00,,0829.1,5.00,0.00,29.3,27.4,00.0,37.9,31.2,25.3,0000.0,0017.62,0006.44,0005.12
2022-07-20 19:20:00,,0829.0,5.00,0.00,29.3,27.0,00.0,37.9,31.2,25.4,0000.0,0017.44,0006.39,0005.09
2022-07-20 19:21:00,,0829.0,5.01,0.00,29.3,27.1,00.0,37.9,31.1,25.7,0000.0,0017.61,0006.42,0005.09
2022-07-20 19:22:00,,0828.9,5.00,0.00,29.2,27.2,00.0,37.9,31.1,25.8,0000.0,0017.74,0006.43,0005.09
2022-07-20 19:23:00,,0828.9,5.01,0.00,29.2,27.4,00.0,37.9,31.1,25.7,0000.0,0018.59,0006.47,0005.10
2022-07-20 19:24:00,,0828.9,4.99,0.00,29.2,27.6,00.0,37.9,31.1,25.7,0000.0,0019.02,0006.52,0005.11
2022-07-20 19:25:00,,0828.8,5.00,0.00,29.3,27.8,00.0,37.9,31.2,25.4,0000.0,0018.69,0006.55,0005.12
2022-07-20 19:26:00,,0828.9,5.01,0.00,29.3,28.0,00.0,38.0,31.3,25.1,0000.0,0018.29,0006.54,0005.13
2022-07-20 19:27:00,,0828.8,5.00,0.00,29.3,27.8,00.0,37.9,31.3,24.9,0000.0,0018.03,0006.52,0005.15
2022-07-20 19:28:00,,0828.8,5.00,0.00,29.3,27.2,00.0,37.9,31.2,25.1,0000.0,0017.83,0006.56,0005.15
2022-07-20 19:29:00,,0828.8,4.99,0.00,29.3,27.1,00.0,37.9,31.1,25.1,0000.0,0018.05,0006.53,0005.14
2022-07-20 19:30:00,,0829.0,5.00,0.00,29.2,27.1,00.0,37.9,31.1,25.5,0000.0,0018.29,0006.58,0005.15
2022-07-20 19:31:00,,0828.9,5.00,0.00,29.2,27.3,00.0,37.9,31.1,25.9,0000.0,0018.66,0006.65,0005.17
2022-07-20 19:32:00,,0828.8,5.00,0.00,29.2,27.5,00.0,37.9,31.1,25.8,0000.0,0018.67,0006.73,0005.17
2022-07-20 19:33:00,,0829.1,5.00,0.00,29.2,27.7,00.0,37.9,31.2,25.7,0000.0,0017.98,0006.74,0005.18
2022-07-20 19:34:00,,0829.4,5.01,0.00,29.3,27.9,00.0,37.9,31.2,25.7,0000.0,0017.53,0006.71,0005.16
2022-07-20 19:35:00,,0829.4,4.99,0.00,29.3,28.1,00.0,38.0,31.3,25.7,0000.0,0018.36,0006.65,0005.16
2022-07-20 19:36:00,,0829.2,5.00,0.00,29.3,27.9,00.0,37.9,31.3,25.5,0000.0,0019.58,0006.63,0005.17
2022-07-20 19:37:00,,0829.3,5.02,0.00,29.3,27.3,00.0,37.9,31.2,25.6,0000.0,0020.00,0006.66,0005.17
2022-07-20 19:38:00,,0829.0,5.00,0.00,29.3,27.1,00.0,37.9,31.2,25.8,0000.0,0020.82,0006.66,0005.17
2022-07-20 19:39:00,,0829.3,4.99,0.00,29.2,27.2,00.0,37.9,31.1,25.8,0000.0,0020.40,0006.62,0005.17
2022-07-20 19:40:00,,0829.3,5.01,0.00,29.2,27.3,00.0,37.9,31.1,25.8,0000.0,0020.60,0006.66,0005.17
2022-07-20 19:41:00,,0829.3,5.00,0.00,29.2,27.5,00.0,37.9,31.1,25.6,0000.0,0019.71,0006.60,0005.17
2022-07-20 19:42:00,,0829.3,5.00,0.00,29.2,27.7,00.0,37.9,31.2,25.6,0000.0,0019.02,0006.56,0005.17
2022-07-20 19:43:00,,0829.3,5.01,0.00,29.3,27.9,00.0,38.0,31.3,25.4,0000.0,0018.11,0006.46,0005.15
2022-07-20 19:44:00,,0828.7,4.99,0.00,29.3,28.0,00.0,38.0,31.3,25.4,0000.0,0017.87,0006.45,0005.14
2022-07-20 19:45:00,,0829.0,5.00,0.00,29.3,27.6,00.0,37.9,31.3,25.8,0000.0,0017.31,0006.47,0005.13
2022-07-20 19:46:00,,0828.9,5.01,0.00,29.3,27.2,00.0,37.9,31.2,25.6,0000.0,0016.75,0006.52,0005.14
2022-07-20 19:47:00,,0828.9,5.00,0.00,29.3,27.2,00.0,37.9,31.1,25.5,0000.0,0015.72,0006.53,0005.14
2022-07-20 19:48:00,,0828.9,5.00,0.00,29.2,27.3,00.0,37.9,31.1,25.5,0000.0,0015.38,0006.55,0005.14
2022-07-20 19:49:00,,0829.0,5.00,0.00,29.2,27.4,00.0,37.9,31.1,25.2,0000.0,0014.79,0006.59,0005.14
2022-07-20 19:50:00,,0829.1,5.00,0.00,29.2,27.6,00.0,37.9,31.2,25.2,0000.0,0015.39,0006.60,0005.14
2022-07-20 19:51:00,,0829.0,5.00,0.00,29.3,27.9,00.0,38.0,31.2,25.4,0000.0,0015.82,0006.58,0005.15
2022-07-20 19:52:00,,0829.1,5.01,0.00,29.3,28.0,00.0,37.9,31.3,25.2,0000.0,0016.53,0006.65,0005.15
2022-07-20 19:53:00,,0829.0,5.01,0.00,29.3,27.6,00.0,37.9,31.3,25.0,0000.0,0016.04,0006.64,0005.14
2022-07-20 19:54:00,,0828.8,5.01,0.00,29.3,27.2,00.0,37.9,31.2,25.0,0000.0,0016.02,0006.64,0005.14
2022-07-20 19:55:00,,0828.5,4.99,0.00,29.3,27.2,00.0,37.9,31.1,25.0,0000.0,0016.30,0006.68,0005.15
2022-07-20 19:56:00,,0828.9,5.01,0.00,29.2,27.3,00.0,37.9,31.1,25.3,0000.0,0016.38,0006.65,0005.13
2022-07-20 19:57:00,,0828.9,5.00,0.00,29.2,27.5,00.0,37.9,31.1,24.9,0000.0,0016.14,0006.57,0005.11
2022-07-20 19:58:00,,0829.0,5.00,0.00,29.2,27.7,00.0,37.9,31.2,24.3,0000.0,0015.81,0006.48,0005.07
2022-07-20 19:59:00,,0829.0,4.99,0.00,29.3,27.9,00.0,37.9,31.2,24.0,0000.0,0016.20,0006.46,0005.03
